EW0158 Weather Reports


Display with metric or nautical units.
time (UTC)temp
F
wind
direction
speed
MPH
gust
MPH
rain 1hr
in
rain 24hr
in
rain mn
in
humidity
%
barometer
mb
20260503180015 70 202 9.0 17.0 0.00 0.00 0.00 54 1023.2
20260503175018 70 180 8.0 14.0 0.00 0.00 0.00 52 1023.2
20260503174015 69 157 6.0 12.0 0.00 0.00 0.00 52 1023.3
20260503173015 70 180 6.0 13.0 0.00 0.00 0.00 52 1023.6
20260503171015 69 202 8.0 14.0 0.00 0.00 0.00 54 1024.0
20260503131017 55 247 2.0 3.0 0.00 0.00 0.00 81 1023.7
20260503130116 53 247 2.0 3.0 0.00 0.00 0.00 82 1023.7
20260503081017 52 180 3.0 4.0 0.00 0.00 0.00 79 1022.9
20260503072016 54 180 4.0 7.0 0.00 0.00 0.00 75 1023.8
20260503071016 54 180 4.0 7.0 0.00 0.00 0.00 75 1023.8
20260503055016 55 112 2.0 3.0 0.00 0.00 0.00 70 1024.1
20260503054016 56 112 2.0 4.0 0.00 0.00 0.00 70 1023.8
20260503053016 56 112 2.0 3.0 0.00 0.00 0.00 69 1024.0
20260503052016 56 112 3.0 4.0 0.00 0.00 0.00 69 1024.0
20260503051017 57 112 2.0 3.0 0.00 0.00 0.00 68 1023.9
20260503050016 57 112 2.0 3.0 0.00 0.00 0.00 68 1023.8
20260503045015 57 112 2.0 3.0 0.00 0.00 0.00 68 1023.9
20260503043015 57 112 2.0 2.0 0.00 0.00 0.00 69 1023.7
20260503042015 57 112 2.0 2.0 0.00 0.00 0.00 68 1023.7
20260503041015 57 112 1.0 2.0 0.00 0.00 0.00 68 1023.8
20260503040017 58 112 2.0 4.0 0.00 0.00 0.00 67 1023.5
20260503035015 58 112 2.0 3.0 0.00 0.00 0.00 66 1023.5
20260503034016 59 112 3.0 4.0 0.00 0.00 0.00 66 1023.5
20260503033016 59 112 2.0 4.0 0.00 0.00 0.00 65 1023.4
20260503032021 59 112 5.0 6.0 0.00 0.00 0.00 65 1023.1
20260503031016 59 90 3.0 4.0 0.00 0.00 0.00 66 1022.9
20260503030016 58 67 3.0 4.0 0.00 0.00 0.00 67 1022.8
20260503025016 57 67 2.0 4.0 0.00 0.00 0.00 69 1022.9
20260503024016 58 67 2.0 3.0 0.00 0.00 0.00 71 1022.5
20260503023017 58 67 2.0 4.0 0.00 0.00 0.00 70 1022.4
20260503022016 58 67 3.0 5.0 0.00 0.00 0.00 70 1022.2
20260503021016 58 67 4.0 5.0 0.00 0.00 0.00 72 1022.1
20260503020015 58 67 3.0 3.0 0.00 0.00 0.00 71 1021.9
20260503015015 58 67 2.0 3.0 0.00 0.00 0.00 71 1021.9
20260503014016 59 67 3.0 3.0 0.00 0.00 0.00 72 1021.7
20260503012016 61 67 3.0 4.0 0.00 0.00 0.00 69 1021.1
20260503011016 62 67 3.0 4.0 0.00 0.00 0.00 66 1021.2
20260503010116 63 67 4.0 6.0 0.00 0.00 0.00 64 1021.2
20260503005016 64 67 4.0 6.0 0.00 0.00 0.00 61 1021.2
20260503004016 65 67 5.0 7.0 0.00 0.00 0.00 57 1021.3
20260503003016 66 67 6.0 8.0 0.00 0.00 0.00 58 1021.1
20260503002016 66 67 7.0 10.0 0.00 0.00 0.00 55 1021.0
20260503001016 67 67 4.0 6.0 0.00 0.00 0.00 54 1021.2
20260503000117 67 90 5.0 7.0 0.00 0.00 0.00 53 1021.3
20260502235016 68 45 4.0 8.0 0.00 0.00 0.00 51 1021.3
20260502234016 68 45 7.0 12.0 0.00 0.00 0.00 54 1021.3
20260502233016 68 67 4.0 6.0 0.00 0.00 0.00 50 1021.6
20260502232016 69 67 5.0 10.0 0.00 0.00 0.00 53 1021.5
20260502231016 69 67 3.0 6.0 0.00 0.00 0.00 49 1021.6
20260502230016 69 90 3.0 5.0 0.00 0.00 0.00 52 1021.6
20260502225016 69 45 4.0 11.0 0.00 0.00 0.00 52 1021.6
20260502224018 69 67 6.0 10.0 0.00 0.00 0.00 49 1021.6
20260502223117 69 67 6.0 10.0 0.00 0.00 0.00 50 1021.6
20260502222016 69 45 7.0 15.0 0.00 0.00 0.00 51 1021.7
20260502221016 69 45 5.0 9.0 0.00 0.00 0.00 54 1021.9
20260502220016 69 0 5.0 11.0 0.00 0.00 0.00 51 1021.8
20260502215016 69 45 3.0 8.0 0.00 0.00 0.00 51 1022.0
20260502214016 68 90 8.0 13.0 0.00 0.00 0.00 54 1022.2
20260502213017 68 45 5.0 7.0 0.00 0.00 0.00 56 1022.3
20260502212016 69 67 7.0 13.0 0.00 0.00 0.00 56 1022.5
20260502211116 68 22 6.0 17.0 0.00 0.00 0.00 55 1022.6
20260502210016 68 67 10.0 16.0 0.00 0.00 0.00 57 1022.7
20260502205016 67 45 8.0 18.0 0.00 0.00 0.00 60 1022.8
20260502204016 68 67 12.0 18.0 0.00 0.00 0.00 55 1023.0
20260502203016 68 45 7.0 16.0 0.00 0.00 0.00 51 1023.0
20260502202016 69 45 8.0 15.0 0.00 0.01 0.00 57 1023.3
20260502201016 68 22 6.0 11.0 0.00 0.01 0.00 57 1023.2
20260502195016 67 90 8.0 16.0 0.00 0.02 0.00 59 1023.4
20260502194016 66 45 11.0 18.0 0.00 0.02 0.00 58 1023.4
20260502193116 67 67 9.0 16.0 0.00 0.02 0.00 62 1023.6
20260502192016 67 45 11.0 17.0 0.00 0.03 0.00 61 1023.8
20260502191017 67 45 11.0 17.0 0.00 0.03 0.00 56 1023.9
20260502190117 67 45 8.0 13.0 0.00 0.03 0.00 63 1023.9
20260502185016 67 45 10.0 18.0 0.00 0.03 0.00 63 1023.9
20260502184016 67 67 10.0 17.0 0.00 0.03 0.00 59 1024.0
20260502183016 66 45 7.0 13.0 0.00 0.03 0.00 67 1023.9
20260502182016 66 67 10.0 15.0 0.00 0.03 0.00 66 1024.0
20260502181016 65 67 11.0 17.0 0.00 0.03 0.00 68 1024.1